This is the latest recevied weather packets stored in our database for station/object KA7EII-13. If no packets are shown the sender has not sent any weather packets the latest 10 day(s).
| Time | Temp. | Humidity | Pressure | Rain* | Wind** | Luminosity | Snow |
|---|---|---|---|---|---|---|---|
| 1777916463 | 20.56° C | 36% | 1098.8 hPa | 0 mm | - | 780 W/m² | - |
| 1777916159 | 20° C | 37% | 1098.9 hPa | 0 mm | - | 797 W/m² | - |
| 1777915857 | 20.56° C | 35% | 1099 hPa | 0 mm | - | 782 W/m² | - |
| 1777915553 | 20° C | 36% | 1098.8 hPa | 0 mm | - | 809 W/m² | - |
| 1777915250 | 20° C | 36% | 1098.9 hPa | 0 mm | - | 829 W/m² | - |
| 1777914947 | 19.44° C | 39% | 1099 hPa | 0 mm | - | 808 W/m² | - |
| 1777914644 | 20° C | 38% | 1098.8 hPa | 0 mm | - | 741 W/m² | - |
| 1777914339 | 20° C | 33% | 1098.8 hPa | 0 mm | - | 750 W/m² | - |
| 1777914038 | 18.89° C | 34% | 1099 hPa | 0 mm | - | 757 W/m² | - |
| 1777913733 | 19.44° C | 34% | 1099 hPa | 0 mm | - | 762 W/m² | - |
| 1777913430 | 19.44° C | 35% | 1099.1 hPa | 0 mm | - | 724 W/m² | - |
| 1777913126 | 18.89° C | 35% | 1099.1 hPa | 0 mm | - | 687 W/m² | - |
| 1777912823 | 18.89° C | 35% | 1099 hPa | 0 mm | - | 691 W/m² | - |
| 1777912519 | 17.78° C | 35% | 1099 hPa | 0 mm | - | 691 W/m² | - |
| 1777912216 | 18.33° C | 41% | 1098.8 hPa | 0 mm | - | 642 W/m² | - |
| 1777911912 | 17.22° C | 40% | 1099.1 hPa | 0 mm | - | 627 W/m² | - |
| 1777911608 | 17.22° C | 37% | 1099.2 hPa | 0 mm | - | 638 W/m² | - |
| 1777911304 | 18.33° C | 36% | 1099.3 hPa | 0 mm | - | 614 W/m² | - |
| 1777911002 | 17.22° C | 42% | 1099.1 hPa | 0 mm | - | 615 W/m² | - |
| 1777910700 | 17.22° C | 40% | 1099.1 hPa | 0 mm | - | 583 W/m² | - |
| 1777910395 | 17.22° C | 42% | 1099.2 hPa | 0 mm | - | 559 W/m² | - |
| 1777910092 | 16.67° C | 43% | 1099.2 hPa | 0 mm | - | 533 W/m² | - |
| 1777909790 | 16.11° C | 40% | 1099.2 hPa | 0 mm | - | 513 W/m² | - |
| 1777909487 | 16.11° C | 40% | 1099.2 hPa | 0 mm | - | 508 W/m² | - |
| 1777909184 | 16.11° C | 42% | 1099.1 hPa | 0 mm | - | 484 W/m² | - |
* Rain latest hour (hover to see other rain measurements)
** Current wind speed in m/s (hover to see current wind gust speed)